This is the latest recevied weather packets stored in our database for station/object SQ6RR-11. If no packets are shown the sender has not sent any weather packets the latest 1 day(s).
| Time | Temp. | Humidity | Pressure | Rain* | Wind** | Luminosity | Snow |
|---|---|---|---|---|---|---|---|
| 1777949352 | 15.56° C | 48% | 1011.4 hPa | 0 mm | 0 m/s | - | - |
| 1777949075 | 15.56° C | 47% | 1011.3 hPa | 0 mm | 0 m/s | - | - |
| 1777948798 | 16.67° C | 46% | 1011.4 hPa | 0 mm | 0 m/s | - | - |
| 1777948527 | 16.67° C | 46% | 1011.4 hPa | 0 mm | 0 m/s | - | - |
| 1777948262 | 16.11° C | 46% | 1011.5 hPa | 0 mm | 0 m/s | - | - |
| 1777947978 | 16.11° C | 50% | 1011.6 hPa | 0 mm | 0 m/s | - | - |
| 1777947708 | 15.56° C | 49% | 1011.7 hPa | 0 mm | 0 m/s | - | - |
| 1777947436 | 15.56° C | 52% | 1011.7 hPa | 0 mm | 0 m/s | - | - |
| 1777947161 | 15° C | 61% | 1011.9 hPa | 0 mm | 0 m/s | - | - |
| 1777946911 | 15° C | 63% | 1012 hPa | 0 mm | 0 m/s | - | - |
| 1777946632 | 13.89° C | 69% | 1012 hPa | 0 mm | 0 m/s | - | - |
| 1777946352 | 13.89° C | 74% | 1012.1 hPa | 0 mm | 0 m/s | - | - |
| 1777946077 | 13.33° C | 77% | 1012.2 hPa | 0 mm | 0 m/s | - | - |
| 1777945787 | 13.33° C | 80% | 1012.2 hPa | 0 mm | 0 m/s | - | - |
| 1777945521 | 13.33° C | 81% | 1012.2 hPa | 0 mm | 0 m/s | - | - |
| 1777945243 | 13.33° C | 82% | 1012.3 hPa | 0 mm | 0 m/s | - | - |
| 1777944992 | 13.33° C | 82% | 1012.3 hPa | 0 mm | 0 m/s | - | - |
| 1777944732 | 13.33° C | 82% | 1012.4 hPa | 0 mm | 0 m/s | - | - |
| 1777944457 | 13.33° C | 82% | 1012.3 hPa | 0 mm | 0 m/s | - | - |
| 1777944187 | 13.33° C | 83% | 1012.3 hPa | 0 mm | 0 m/s | - | - |
| 1777943929 | 13.33° C | 82% | 1012.4 hPa | 0 mm | 0 m/s | - | - |
| 1777943662 | 13.33° C | 82% | 1012.5 hPa | 0 mm | 0 m/s | - | - |
| 1777943377 | 13.33° C | 83% | 1012.5 hPa | 0 mm | 0 m/s | - | - |
| 1777943102 | 13.33° C | 83% | 1012.5 hPa | 0 mm | 0 m/s | - | - |
| 1777942832 | 13.33° C | 83% | 1012.6 hPa | 0 mm | 0 m/s | - | - |
* Rain latest hour (hover to see other rain measurements)
** Current wind speed in m/s (hover to see current wind gust speed)